Stations météo

réclame
Mon MeteoGroup
A12-CPP, Pays-Bas (6205): Température de l'air & dewpoint: 11.01.2019 01:00:00 - 17.01.2019 01:00:00 (CET)A12-CPP, Pays-Bas (6205): Vitesse du vent & gusts: 11.01.2019 01:00:00 - 17.01.2019 01:00:00 (CET)A12-CPP, Pays-Bas (6205): Direction du vent: 11.01.2019 01:00:00 - 17.01.2019 01:00:00 (CET)A12-CPP, Pays-Bas (6205): reduced air pressure: 11.01.2019 01:00:00 - 17.01.2019 01:00:00 (CET)A12-CPP, Pays-Bas (6205): visibility: 11.01.2019 01:00:00 - 17.01.2019 01:00:00 (CET)
Date & Time tt [°C] td [°C] ff [km/h] ff [knt] fx [km/h] fx [knt] dd ppp [hPa] vv [km]
17.01.2019 01:00:00 6,0 2,2 52 28 54 29 W 992,2 10
17.01.2019 00:00:00 6,5 1,4 52 28 50 27 W 992,3 10
16.01.2019 23:00:00 6,5 2,5 44 24 58 31 WNW 992,5 10
16.01.2019 22:00:00 7,1 1,8 44 24 50 27 WNW 992,7 10
16.01.2019 21:00:00 7,0 2,6 46 25 54 29 WNW 992,9 10
16.01.2019 20:00:00 7,0 2,4 46 25 50 27 W 993,0 10
16.01.2019 19:00:00 7,2 3,3 40 21 47 25 W 993,0 24
16.01.2019 18:00:00 7,5 3,6 46 25 47 25 W 993,2 10
16.01.2019 17:00:00 7,5 4,4 46 25 50 27 W 993,4 10
16.01.2019 16:00:00 7,6 5,6 50 27 50 27 WSW 993,7 10
16.01.2019 15:00:00 7,8 5,6 54 29 68 37 WSW 993,8 10
16.01.2019 14:00:00 8,0 6,6 67 36 72 39 SW 993,7 10
16.01.2019 13:00:00 8,0 6,5 68 37 68 37 SW 994,6 10
16.01.2019 12:00:00 7,9 6,5 61 33 68 37 SW 995,4 10
16.01.2019 11:00:00 7,8 6,4 59 32 65 35 SW 996,2 10
16.01.2019 10:00:00 7,8 6,5 63 34 65 35 SW 996,9 10
16.01.2019 09:00:00 7,7 6,5 59 32 65 35 SW 997,7 10
16.01.2019 08:00:00 7,7 6,4 61 33 65 35 SW 998,2 10
16.01.2019 07:00:00 7,7 6,2 57 31 58 31 SSW 998,7 10
16.01.2019 06:00:00 7,9 6,2 59 32 61 33 SW 999,5 10
16.01.2019 05:00:00 7,9 6,2 59 32 61 33 SW 1000,2 10
16.01.2019 04:00:00 7,9 6,1 59 32 65 35 SW 1001,1 10
16.01.2019 03:00:00 7,7 6,1 57 31 58 31 SW 1001,9 10
16.01.2019 02:00:00 7,8 5,5 59 32 61 33 WSW 1002,5 10
16.01.2019 01:00:00 7,9 5,1 59 32 61 33 WSW 1003,2 10
16.01.2019 00:00:00 8,0 5,2 61 33 61 33 WSW 1003,8 10
15.01.2019 23:00:00 8,1 5,1 61 33 61 33 WSW 1004,0 10
15.01.2019 22:00:00 8,2 5,3 55 30 58 31 WSW 1004,9 10
15.01.2019 21:00:00 8,1 5,7 55 30 58 31 WSW 1005,2 10
15.01.2019 20:00:00 8,4 5,7 54 29 58 31 WSW 1005,7 10
15.01.2019 19:00:00 8,5 6,0 55 30 58 31 WSW 1006,0 10
15.01.2019 18:00:00 8,4 6,3 55 30 58 31 WSW 1006,2 10
15.01.2019 17:00:00 8,2 6,7 46 25 47 25 W 1006,6 10
15.01.2019 16:00:00 8,3 6,9 44 24 43 23 W 1006,9 10
15.01.2019 15:00:00 8,2 7,0 46 25 43 23 W 1007,1 10
15.01.2019 14:00:00 8,2 7,0 46 25 50 27 W 1007,5 10
15.01.2019 13:00:00 8,3 6,8 48 26 54 29 W 1007,6 10
15.01.2019 12:00:00 8,2 6,5 57 31 61 33 W 1007,9 10
15.01.2019 11:00:00 8,3 6,3 54 29 54 29 WSW 1007,9 10
15.01.2019 10:00:00 8,0 6,2 55 30 54 29 WSW 1007,9 10
15.01.2019 09:00:00 8,1 6,3 52 28 50 27 WSW 1008,2 10
15.01.2019 08:00:00 7,9 6,4 54 29 54 29 WSW 1008,2 10
15.01.2019 07:00:00 7,7 6,2 50 27 50 27 WSW 1008,6 10
15.01.2019 06:00:00 7,5 6,0 46 25 47 25 WSW 1009,6 10
15.01.2019 05:00:00 7,5 6,0 46 25 47 25 W 1010,3 10
15.01.2019 04:00:00 7,4 5,6 46 25 47 25 W 1011,4 10
15.01.2019 03:00:00 7,3 5,0 42 23 47 25 WNW 1011,8 10
15.01.2019 02:00:00 7,3 5,0 44 24 50 27 W 1011,7 10
15.01.2019 01:00:00 7,2 4,9 52 28 50 27 W 1012,3 10
15.01.2019 00:00:00 6,8 4,6 52 28 50 27 WSW 1012,9 10
14.01.2019 23:00:00 6,3 2,4 52 28 54 29 WSW 1013,7 10
14.01.2019 22:00:00 6,0 0,7 48 26 47 25 WSW 1014,6 10
14.01.2019 21:00:00 5,8 0,8 37 20 40 21 W 1015,1 10
14.01.2019 20:00:00 5,6 0,9 39 21 43 23 NW 1015,5 10
14.01.2019 19:00:00 6,1 -0,6 41 22 47 25 NNW 1015,3 10
14.01.2019 18:00:00 5,5 -0,9 52 28 58 31 NNW 1015,0 10
14.01.2019 17:00:00 5,6 -1,8 59 32 65 35 NNW 1014,3 10
14.01.2019 16:00:00 5,6 -1,0 61 33 68 37 NNW 1013,9 10
14.01.2019 15:00:00 5,0 -0,6 59 32 68 37 NNW 1013,6 10
14.01.2019 14:00:00 5,3 -3,1 68 37 76 41 NNW 1012,9 10
14.01.2019 13:00:00 5,3 -3,7 78 42 79 43 N 1011,9 10
14.01.2019 12:00:00 4,8 -1,6 67 36 76 41 NNW 1011,7 10
14.01.2019 11:00:00 4,7 -2,4 76 41 76 41 NNW 1011,5 10
14.01.2019 10:00:00 5,3 -4,7 80 43 83 45 N 1010,4 10
14.01.2019 09:00:00 5,1 -3,0 80 43 86 47 N 1009,8 10
14.01.2019 08:00:00 4,9 -2,6 70 38 83 45 N 1008,6 10
14.01.2019 07:00:00 4,2 -0,6 63 34 86 47 NNW 1008,6 10
14.01.2019 06:00:00 4,7 -0,8 76 41 79 43 N 1007,8 10
14.01.2019 05:00:00 5,1 0,2 72 39 72 39 N 1007,5 9
14.01.2019 04:00:00 4,8 -1,2 81 44 79 43 N 1006,7 10
14.01.2019 03:00:00 5,1 0,3 63 34 65 35 N 1006,0 10
14.01.2019 02:00:00 5,8 0,2 46 25 58 31 NNW 1005,0 10
14.01.2019 01:00:00 5,9 -0,3 55 30 58 31 N 1004,2 10
14.01.2019 00:00:00 6,2 -0,4 48 26 50 27 N 1002,9 10
13.01.2019 23:00:00 6,4 0,9 42 23 50 27 N 1001,9 10
13.01.2019 22:00:00 6,7 1,8 35 19 43 23 N 1000,8 10
13.01.2019 21:00:00 7,0 2,8 44 24 47 25 N 999,6 10
13.01.2019 20:00:00 6,9 4,6 55 30 65 35 NNW 998,0 10
13.01.2019 19:00:00 7,5 4,7 67 36 72 39 NNW 996,8 10
13.01.2019 18:00:00 7,7 4,4 68 37 79 43 NNW 995,7 10
13.01.2019 17:00:00 6,3 3,0 68 37 79 43 WNW 994,9 10
13.01.2019 16:00:00 8,3 4,8 72 39 86 47 NW 994,8 10
13.01.2019 15:00:00 8,8 4,2 70 38 79 43 NW 994,6 10
13.01.2019 14:00:00 9,1 4,6 76 41 79 43 NW 994,8 10
13.01.2019 13:00:00 8,5 5,2 54 29 97 53 NW 995,3 15
13.01.2019 12:00:00 8,9 7,2 63 34 65 35 W 996,3 10
13.01.2019 11:00:00 9,0 7,2 63 34 65 35 W 997,0 10
13.01.2019 10:00:00 8,9 7,3 54 29 58 31 W 998,2 10
13.01.2019 09:00:00 8,9 7,3 54 29 58 31 W 999,0 10
13.01.2019 08:00:00 8,9 7,5 55 30 54 29 WNW 999,5 9
13.01.2019 07:00:00 8,8 7,6 54 29 54 29 WNW 999,7 9
13.01.2019 06:00:00 8,6 8,2 54 29 54 29 WNW 1000,5 8
13.01.2019 05:00:00 8,1 8,0 50 27 54 29 W 1001,5 3,6
13.01.2019 04:00:00 8,3 8,0 44 24 47 25 W 1002,1 6
13.01.2019 03:00:00 8,2 8,0 42 23 43 23 W 1003,2 6
13.01.2019 02:00:00 7,9 7,7 41 22 40 21 WSW 1004,3 2,7
13.01.2019 01:00:00 8,0 6,8 37 20 43 23 W 1005,2 10
13.01.2019 00:00:00 8,0 6,7 32 18 43 23 WNW 1006,2 14
12.01.2019 23:00:00 8,0 6,4 48 26 50 27 NW 1006,6 10
12.01.2019 22:00:00 7,7 6,8 54 29 50 27 NW 1006,8 8
12.01.2019 21:00:00 7,6 6,7 50 27 50 27 NW 1007,0 10
12.01.2019 20:00:00 7,9 6,2 57 31 61 33 NW 1007,2 10
12.01.2019 19:00:00 7,9 6,1 50 27 61 33 NW 1007,2 10
12.01.2019 18:00:00 7,9 5,9 55 30 61 33 NW 1007,3 10
12.01.2019 17:00:00 7,9 5,2 55 30 61 33 WNW 1007,3 10
12.01.2019 16:00:00 8,0 5,2 52 28 58 31 NW 1007,3 10
12.01.2019 15:00:00 8,1 5,2 57 31 58 31 NW 1007,7 10
12.01.2019 14:00:00 8,2 4,9 55 30 58 31 WNW 1008,2 10
12.01.2019 13:00:00 8,2 5,0 55 30 61 33 NW 1008,8 10
12.01.2019 12:00:00 7,6 5,0 63 34 61 33 NW 1009,4 10
12.01.2019 11:00:00 8,3 5,2 55 30 54 29 NW 1009,4 10
12.01.2019 10:00:00 8,1 6,2 48 26 54 29 NW 1009,8 10
12.01.2019 09:00:00 8,4 6,4 55 30 58 31 NW 1010,0 10
12.01.2019 08:00:00 7,8 7,0 50 27 61 33 W 1010,4 8
12.01.2019 07:00:00 7,5 6,7 52 28 54 29 WSW 1011,2 4,0
12.01.2019 06:00:00 7,9 6,1 48 26 50 27 WSW 1012,6 10
12.01.2019 05:00:00 7,6 6,4 48 26 50 27 WSW 1014,3 9
12.01.2019 04:00:00 7,6 6,4 41 22 43 23 WSW 1015,8 10
12.01.2019 03:00:00 7,8 5,2 34 18 36 19 WSW 1017,1 10
12.01.2019 02:00:00 7,7 5,3 31 17 32 18 W 1018,2 10
12.01.2019 01:00:00 7,7 5,2 31 17 36 19 W 1019,2 10
12.01.2019 00:00:00 7,7 5,9 37 20 43 23 NW 1020,1 10
11.01.2019 23:00:00 7,5 6,5 42 23 47 25 NW 1020,5 10
11.01.2019 22:00:00 7,4 6,5 41 22 47 25 NW 1021,1 10
11.01.2019 21:00:00 7,4 6,1 44 24 47 25 NNW 1021,5 10
11.01.2019 20:00:00 7,8 6,1 48 26 50 27 NNW 1021,8 10
11.01.2019 19:00:00 7,7 6,3 48 26 47 25 NNW 1021,8 10
11.01.2019 18:00:00 7,7 6,3 46 25 47 25 NNW 1022,0 10
11.01.2019 17:00:00 7,9 6,2 50 27 54 29 NNW 1022,0 10
11.01.2019 16:00:00 8,0 6,3 50 27 58 31 NNW 1022,3 10
11.01.2019 15:00:00 8,0 6,3 52 28 54 29 NNW 1021,9 10
11.01.2019 14:00:00 8,2 6,3 54 29 58 31 NNW 1021,9 10
11.01.2019 13:00:00 8,2 6,5 54 29 54 29 NNW 1022,2 10
11.01.2019 12:00:00 8,2 6,8 50 27 54 29 NNW 1022,4 9
11.01.2019 11:00:00 8,0 7,0 54 29 58 31 NNW 1022,6 10
11.01.2019 10:00:00 8,2 6,6 55 30 58 31 NNW 1022,3 10
11.01.2019 09:00:00 8,2 6,8 52 28 54 29 NNW 1022,2 10
11.01.2019 08:00:00 8,1 7,2 55 30 58 31 NNW 1022,0 10
11.01.2019 07:00:00 8,0 6,9 52 28 58 31 NNW 1021,9 10
11.01.2019 06:00:00 8,2 6,6 61 33 61 33 NNW 1022,0 10
11.01.2019 05:00:00 8,1 7,0 52 28 54 29 NNW 1022,3 10
11.01.2019 04:00:00 7,9 6,9 50 27 50 27 NNW 1022,9 10
11.01.2019 03:00:00 7,9 6,8 48 26 54 29 NNW 1023,2 10
11.01.2019 02:00:00 8,2 6,6 46 25 47 25 NNW 1023,3 10
11.01.2019 01:00:00 8,1 6,7 42 23 43 23 NNW 1023,8 10

tt = Température de l'air
td = dewpoint
ff = Vitesse du vent
fx = gusts
dd = Direction du vent
ppp = reduced air pressure
vv = visibility

stations d'obs. à proximité